Moab, UT

6:45 PM MDT on October 22, 2019 (GMT -0600)
Canyonlands

Weather History for KCNY - August, 2019

Change the Weather History Date:

Thursday, August 15, 2019

  Actual Average Record
Temperature  
Mean Temperature 80 °F 78 °F  
Max Temperature 100 °F 93 °F 106 °F (1962)
Min Temperature 59 °F 62 °F 51 °F (1950)
Degree Days  
Heating Degree Days 0 0  
Month to date heating degree days 0 0  
Since 1 June heating degree days 23 17  
Since 1 July heating degree days 0 0  
Cooling Degree Days 15 12  
Month to date cooling degree days 245 210  
Year to date cooling degree days 1018 1003  
Since 1 June cooling degree days 1003 939  
Growing Degree Days 30 (Base 50)    
Moisture  
Dew Point 20 °F    
Average Humidity 13    
Maximum Humidity 20    
Minimum Humidity 5    
Precipitation  
Precipitation 0.00 in 0.03 in 0.30 in (1937)
Month to date precipitation 0.02 0.40  
Year to date precipitation 6.17 4.94  
Sea Level Pressure  
Sea Level Pressure 29.86 in    
Wind  
Wind Speed 5 mph (WSW)    
Max Wind Speed 18 mph    
Max Gust Speed 26 mph    
Visibility 10 miles    
Events      
T = Trace of Precipitation, MM = Missing Value Source: NWS Daily Summary

Daily Weather History Graph

Daily Weather History Graph

Search for Another Location

Airport or City:

Astronomy

Aug. 15, 2019 Rise Set
Actual Time 6:32 AM MDT 8:13 PM MDT
Civil Twilight 6:04 AM MDT 8:41 PM MDT
Nautical Twilight 5:29 AM MDT 9:16 PM MDT
Astronomical Twilight 4:53 AM MDT 9:52 PM MDT
Moon 8:43 PM MDT (8/15) 6:30 AM MDT (8/15)
Length of Visible Light 14h 37m
Length of Day
13h 40m
Full, 100% of the Moon is Illuminated
Aug 15
Full
Aug 23
Last Quarter
Aug 30
New
Sep 5
First Quarter
Sep 13
Full

Hourly Weather History & Observations

Time (MDT) Temp. Dew Point Humidity Pressure Visibility Wind Dir Wind Speed Gust Speed Precip Events Conditions
12:53 AM 73.0 °F 18.0 °F 12% 29.89 in 10.0 mi Calm Calm - N/A   Clear
1:53 AM 70.0 °F 19.0 °F 14% 29.89 in 10.0 mi Variable 5.8 mph - N/A   Clear
2:53 AM 64.9 °F 17.1 °F 16% 29.90 in 10.0 mi SSW 4.6 mph - N/A   Clear
3:53 AM 66.0 °F 18.0 °F 16% 29.89 in 10.0 mi NNW 10.4 mph - N/A   Clear
4:53 AM 62.1 °F 18.0 °F 18% 29.91 in 10.0 mi Calm Calm - N/A   Clear
5:53 AM 66.0 °F 19.0 °F 17% 29.92 in 10.0 mi Calm Calm - N/A   Clear
6:53 AM 63.0 °F 21.9 °F 21% 29.94 in 10.0 mi Calm Calm - N/A   Clear
7:53 AM 69.1 °F 21.0 °F 16% 29.95 in 10.0 mi Calm Calm - N/A   Clear
8:53 AM 79.0 °F 25.0 °F 14% 29.96 in 10.0 mi Calm Calm - N/A   Clear
9:53 AM 82.9 °F 24.1 °F 12% 29.96 in 10.0 mi SE 5.8 mph - N/A   Clear
10:53 AM 88.0 °F 24.1 °F 10% 29.95 in 10.0 mi South 5.8 mph - N/A   Clear
11:53 AM 91.9 °F 25.0 °F 9% 29.93 in 10.0 mi Variable 3.5 mph - N/A   Clear
12:53 PM 93.9 °F 25.0 °F 8% 29.90 in 10.0 mi Variable 4.6 mph - N/A   Clear
1:53 PM 98.1 °F 24.1 °F 7% 29.87 in 10.0 mi West 9.2 mph 18.4 mph N/A   Clear
2:53 PM 99.0 °F 16.0 °F 5% 29.85 in 10.0 mi SW 8.1 mph 26.5 mph N/A   Clear
3:53 PM 97.0 °F 19.0 °F 6% 29.82 in 10.0 mi Variable 4.6 mph 20.7 mph N/A   Clear
4:53 PM 99.0 °F 19.0 °F 6% 29.80 in 10.0 mi North - - N/A   Clear
5:53 PM 98.1 °F 18.0 °F 6% 29.77 in 10.0 mi Calm Calm - N/A   Clear
6:53 PM 98.1 °F 19.0 °F 6% 29.75 in 10.0 mi Variable 6.9 mph - N/A   Clear
7:53 PM 93.9 °F 19.0 °F 7% 29.74 in 10.0 mi NW 4.6 mph - N/A   Clear
8:53 PM 84.9 °F 17.1 °F 8% 29.74 in 10.0 mi West 3.5 mph - N/A   Clear
9:53 PM 81.0 °F 19.9 °F 10% 29.76 in 10.0 mi WSW 6.9 mph - N/A   Clear
10:53 PM 80.1 °F 19.9 °F 11% 29.76 in 10.0 mi NW 9.2 mph - N/A   Clear
11:53 PM 75.0 °F 19.9 °F 13% 29.76 in 10.0 mi Calm Calm - N/A   Clear